Location: Hengforden
(52.3167°N, 6.1333°E)
Time: 16:02:26
(UTC+00:00)

RESURS DK-1 - Pass Details

Date: 14 June 2025
Orbit: 531 x 534 km, 69.9° (Epoch: 19 July)

Event Time Altitude Azimuth Distance (km) Brightness Sun altitude
Rises 21:38:52 0° 209° (SSW) 2,675 5.5 -10.2°
Reaches altitude 10° 21:41:02 10° 209° (SSW) 1,789 4.6 -10.3°
Maximum altitude 21:45:01 84° 123° (ESE) 545 2.2 -10.6°
Drops below altitude 10° 21:49:03 10° 34° (NE) 1,801 5.4 -10.9°
Sets 21:51:14 0° 34° (NNE) 2,696 6.3 -11.0°
